Location: Crescent
(42.8242°N, 73.7329°W)
Time: 03:01:51
(UTC+00:00)

Transit 4A - Pass Details

Date: 20 February 2026
Orbit: 863 x 978 km, 66.8° (Epoch: 13 March)

Event Time Altitude Azimuth Distance (km) Brightness Sun altitude
Rises 18:23:32 0° 316° (NW) 3,630 10.8 33.8°
Reaches altitude 10° 18:26:40 10° 301° (WNW) 2,696 10.3 33.6°
Maximum altitude 18:31:12 21° 255° (WSW) 2,020 10.5 33.2°
Drops below altitude 10° 18:35:46 10° 209° (SSW) 2,714 11.9 32.9°
Sets 18:38:57 0° 194° (SSW) 3,661 12.0 32.6°
